Regional Weather Roundup
Issued by NWS

Home | Current Version | Previous Version | Text Only | Print | Product List | Glossary Off
Versions: 1 2 3 4 5 6 7 8 9 10 11 12 13 14 15 16 17 18 19 20 21 22 23 24 25 26 27 28 29 30 31 32 33 34 35 36 37 38 39 40 41 42 43 44 45 46 47 48 49 50

000
ASUS44 KMEG 311800
RWRTN
TENNESSEE HOURLY STATE WEATHER ROUNDUP
NATIONAL WEATHER SERVICE MEMPHIS TN
100 PM CDT MON AUG 31 2015

TNZ002-004-019-021-049-052-054-088>092-311900-
WEST TENNESSEE

CITY           SKY/WX    TMP DP  RH WIND       PRES   REMARKS
MEMPHIS INTL   MOSUNNY   89  69  51 VRB5      30.08F HX  93
NWS MEMPHIS      N/A     87 N/A N/A MISG        N/A
JACKSON        SUNNY     83  68  60 CALM      30.11F
DYERSBURG      SUNNY     84  70  61 NE3       30.11S
UNION CITY     SUNNY     84  68  58 SE5       30.10F
PARIS          SUNNY     81  66  61 CALM      30.13F
LEXINGTON      PTSUNNY   82  68  61 N5        30.12S
$$

TNZ008-025-027-028-033-062-065-066-311900-
NORTH MIDDLE TENNESSEE

CITY           SKY/WX    TMP DP  RH WIND       PRES   REMARKS
NASHVILLE      MOSUNNY   84  63  49 SE6       30.14F
CLARKSVILLE    SUNNY     85  64  49 S7        30.13F
COOKEVILLE     MOSUNNY   82  70  65 CALM      30.15S
CROSSVILLE     PTSUNNY   79  61  53 VRB3      30.19F
$$

TNZ061-075-076-078-094-096-097-311900-
SOUTH MIDDLE TENNESSEE

CITY           SKY/WX    TMP DP  RH WIND       PRES   REMARKS
FAYETTEVILLE     N/A     77  64  65 E5        30.14F
TULLAHOMA      PTSUNNY   79  64  61 CALM      30.16F
WINCHESTER     PTSUNNY   79  66  65 CALM      30.15S
SHELBYVILLE    MOSUNNY   82  68  61 VRB5      30.15F
$$

TNZ017-018-042-046-047-311900-
NORTHEAST TENNESSEE

CITY           SKY/WX    TMP DP  RH WIND       PRES   REMARKS
TRI CITIES     MOSUNNY   80  62  54 N3        30.15F
$$

TNZ012-013-036-069-073-074-311900-
CENTRAL EAST TENNESSEE

CITY           SKY/WX    TMP DP  RH WIND       PRES   REMARKS
KNOXVILLE      NOT AVBL
OAK RIDGE      SUNNY     84  64  50 CALM      30.15F
GATLINBURG     MOCLDY    81  61  50 CALM      30.13F
$$

TNZ083-085-099-311900-
SOUTHEAST TENNESSEE

CITY           SKY/WX    TMP DP  RH WIND       PRES   REMARKS
CHATTANOOGA    PTSUNNY   81  65  58 E6        30.13F
$$

SKY/WX REPORTED AS FAIR MEANS FEW OR NO CLOUDS BELOW
12 THOUSAND FEET.




USA.gov is the U.S. government's official web portal to all federal, state and local government web resources and services.